OKEAN-0
1 25860U 99039A 12214.93901070 +.00000308 +00000-0 +54103-4 0 07187
2 25860 097.9397 176.6569 0001767 077.5057 282.6350 14.74251942701316
NOAA-16
1 26536U 00055A 12215.49700179 -.00000059 00000-0 -68527-5 0 8404
2 26536 099.0916 258.3285 0009970 316.8825 043.1571 14.12764003611578
NOAA-17
1 27453U 02032A 12215.66360015 .00000307 00000-0 14998-3 0 7886
2 27453 098.3345 240.3493 0012141 024.9970 335.1788 14.24465878525376
NOAA-18
1 28654U 05018A 12215.63204521 .00000026 00000-0 39544-4 0 2702
2 28654 099.0487 174.1162 0015012 027.0294 333.1640 14.11679994371113
NOAA-19
1 33591U 09005A 12215.65031028 .00000024 00000-0 37554-4 0 4596
2 33591 098.8646 154.8682 0013128 249.9340 110.0408 14.11366849179569
HUBBLE
1 20580U 90037B 12215.15326402 .00001229 00000-0 77543-4 0 476
2 20580 028.4693 202.7095 0003583 184.7121 175.3444 15.02654014 21657
ISS
1 25544U 98067A 12215.90472985 .00021088 00000-0 31576-3 0 462
2 25544 051.6396 249.0025 0001145 009.7490 048.1252 15.54918093785281
CO-58
1 28895U 05043F 12214.63737407 +.00000619 +00000-0 +13588-3 0 02415
2 28895 097.9080 078.8999 0017682 012.9777 347.1933 14.60690778360292
FALCON
1 30776U 07006E 12215.74184904 .00003327 00000-0 21541-3 0 4046
2 30776 035.4341 352.4229 0001526 045.2614 314.8228 15.07845874297283
MAST
1 31126U 07012K 12214.97975477 +.00000535 +00000-0 +12973-3 0 05251
2 31126 097.8728 223.4033 0093421 328.6730 030.8923 14.54212808280922
CAPE1
1 31130U 07012P 12214.91617364 +.00000825 +00000-0 +19749-3 0 05337
2 31130 097.8833 219.6993 0101232 342.3396 017.4315 14.53009217280414
COMPASS
1 32787U 08021E 12214.64682246 +.00001366 +00000-0 +16952-3 0 03723
2 32787 097.7966 274.9724 0014093 272.8142 087.1455 14.84156106230552
AAUSAT2
1 32788U 08021F 12215.61745642 .00002225 00000-0 27004-3 0 3637
2 32788 097.7992 276.3295 0013281 270.5713 089.3962 14.84497982230724
DO-64
1 32789U 08021G 12215.75126357 .00003584 00000-0 41459-3 0 3795
2 32789 097.8103 278.6627 0013367 264.7651 095.2011 14.86097380230793
CO-66
1 32791U 08021J 12214.58730570 +.00001245 +00000-0 +15738-3 0 03610
2 32791 097.7967 274.6197 0014100 270.9433 089.0214 14.83545812230470
RS-30
1 32953U 08025A 12215.65101180 .00000010 00000-0 00000+0 0 171
2 32953 082.5010 266.2472 0018192 202.7122 157.3153 12.43026128190336
PHARMSAT
1 35002U 09028B 12215.86735703 .00503214 12552-3 64137-3 0 368
2 35002 040.4482 124.4247 0012509 249.8177 110.1157 16.06275110181772
METEOR-M
1 35865U 09049A 12215.66373244 -.00000029 00000-0 63180-5 0 6470
2 35865 098.6512 269.1095 0001722 290.7211 069.3779 14.21866346149204
RS-38
1 35869U 09049E 12215.67795319 -.00000004 00000-0 17880-4 0 6542
2 35869 098.6467 269.1116 0003838 283.0176 077.0579 14.22080162149227
JUGNU
1 37839U 11058B 12215.66855132 .00000619 00000-0 19019-3 0 1982
2 37839 019.9628 076.6356 0019429 016.1827 343.9190 14.12070372 41821
SRMSAT
1 37841U 11058D 12215.71556178 .00000264 00000-0 00000+0 0 1981
2 37841 019.9711 082.1471 0011852 338.9053 021.0881 14.10152275 41760
RAX-2
1 37853U 11061D 12215.76004671 .00003200 00000-0 26015-3 0 2464
2 37853 101.7106 277.1584 0246206 218.1782 140.1745 14.80274703 41280
AUBIESAT
1 37854U 11061E 12214.89154877 +.00003204 +00000-0 +25643-3 0 02552
2 37854 101.7114 276.1984 0247238 219.6684 138.6203 14.80668086041154
HRBE
1 37855U 11061F 12214.84226442 +.00002553 +00000-0 +20698-3 0 02502
2 37855 101.7118 276.0734 0247949 220.0628 138.2032 14.80509289041148
RS-39
1 38051U 11062C 12215.73803604 .00009592 00000-0 39172-3 0 5715
2 38051 051.6356 297.9020 0013900 202.6990 301.9069 15.24957299 29074
E-STAR
1 38079U 12006C 12215.42880991 .00029218 00000-0 70864-3 0 3981
2 38079 069.4890 209.7797 0732534 189.6248 169.0130 14.17545081 24134
GOLIAT
1 38085U 12006J 12215.38235746 .00029524 00000-0 70899-3 0 3691
2 38085 069.4875 210.3122 0738288 189.9680 168.6087 14.16519567 24112
HORYU-2
1 38340U 12025D 12215.45240283 .00000825 00000-0 14570-3 0 779
2 38340 098.1748 155.2916 0013075 177.8031 182.3290 14.70063795 11277
